Munising, MI

4:27 PM EST on February 12, 2016 (GMT -0500)
Munising

Weather History for KP53 - August, 2014

Change the Weather History Date:

Saturday, August 30, 2014

  Actual Average (KISQ) Record (KISQ)
Temperature  
Mean Temperature 64 °F -  
Max Temperature 70 °F 74 °F 88 °F (1991)
Min Temperature 59 °F 52 °F 32 °F (1976)
Growing Degree Days 14 (Base 50)    
Moisture  
Dew Point 61 °F    
Average Humidity 90    
Maximum Humidity 93    
Minimum Humidity 87    
Precipitation  
Precipitation 1.35 in - - ()
Sea Level Pressure  
Sea Level Pressure 29.77 in    
Wind  
Wind Speed 6 mph (WNW)    
Max Wind Speed 16 mph    
Max Gust Speed 16 mph    
Averages and records for this station are not official NWS values.
T = Trace of Precipitation, MM = Missing Value Source: NWS Daily Summary

Daily Weather History Graph

Daily Weather History Graph

Search for Another Location

Airport or City:

Trip Planner

Search our weather history database for the weather conditions in past years. The results will help you decide how hot, cold, wet, or windy it might be!

Date:

Astronomy

Aug. 30, 2014 Rise Set
Actual Time 7:04 AM EDT 8:29 PM EDT
Civil Twilight 6:32 AM EDT 9:00 PM EDT
Nautical Twilight 5:54 AM EDT 9:38 PM EDT
Astronomical Twilight 5:14 AM EDT 10:18 PM EDT
Moon 12:10 PM EDT (8/30) 10:43 PM EDT (8/30)
Length of Visible Light 14h 27m
Length of Day
13h 24m
Waxing Crescent, 23% of the Moon is Illuminated
Aug 30
Waxing Crescent
Sep 2
First Quarter
Sep 8
Full
Sep 15
Last Quarter
Sep 24
New

Hourly Weather History & Observations

Time (EDT) Temp. Dew Point Humidity Pressure Visibility Wind Dir Wind Speed Gust Speed Precip Events Conditions
1:56 AM 68.0 °F 64.0 °F 87% 29.80 in - South 4.6 mph - N/A   Unknown
2:56 AM 68.0 °F 64.9 °F 90% 29.79 in - SSW 5.8 mph - N/A   Unknown
3:56 AM 66.9 °F 64.0 °F 90% 29.79 in - SSE 4.6 mph - N/A   Unknown
4:56 AM 68.0 °F 64.9 °F 90% 29.77 in - South 3.5 mph - N/A   Unknown
5:56 AM 68.0 °F 64.9 °F 90% 29.77 in - South 4.6 mph - 0.03 in   Unknown
6:56 AM 68.0 °F 64.9 °F 90% 29.77 in - SSW 3.5 mph - 0.05 in   Unknown
7:56 AM 66.9 °F 64.0 °F 90% 29.76 in - Calm Calm - 0.03 in   Unknown
8:56 AM 66.9 °F 64.9 °F 93% 29.76 in - Calm Calm - 0.02 in   Unknown
9:56 AM 70.0 °F 66.0 °F 87% 29.75 in - Calm Calm - 0.01 in   Unknown
10:56 AM 69.1 °F 66.0 °F 90% 29.74 in - Calm Calm - 0.01 in   Unknown
11:56 AM 66.9 °F 64.0 °F 90% 29.74 in - NE 5.8 mph - N/A   Unknown
12:56 PM 66.0 °F 64.0 °F 93% 29.74 in - NE 8.1 mph - 0.02 in   Unknown
1:31 PM 64.0 °F 62.1 °F 93% 29.75 in - NNW 13.8 mph - 0.10 in   Unknown
1:56 PM 64.0 °F 61.0 °F 90% 29.75 in - NE 9.2 mph - 0.10 in   Unknown
2:56 PM 62.1 °F 59.0 °F 90% 29.75 in - NW 10.4 mph - 0.03 in   Unknown
3:56 PM 60.1 °F 57.0 °F 90% 29.75 in - NW 9.2 mph - 0.21 in   Unknown
4:56 PM 59.0 °F 55.9 °F 90% 29.76 in - Calm Calm - 0.53 in   Unknown
5:56 PM 59.0 °F 57.0 °F 93% 29.76 in - NW 12.7 mph 16.1 mph 0.30 in   Unknown
7:56 PM 59.0 °F 57.0 °F 93% 29.78 in - NW 13.8 mph - N/A   Unknown
8:56 PM 59.0 °F 55.9 °F 90% 29.80 in - NW 9.2 mph - N/A   Unknown
9:56 PM 59.0 °F 55.9 °F 90% 29.82 in - NW 8.1 mph - 0.01 in   Unknown
10:56 PM 61.0 °F 57.9 °F 90% 29.83 in - NNW 11.5 mph - N/A   Unknown
11:56 PM 62.1 °F 59.0 °F 90% 29.84 in - NNW 16.1 mph - N/A   Unknown